Hourly Weather Morlaix

Today, 13 August, Thursday

Time Temperature Precipitation Wind Pressure Humidity
00:00 +19°C° 0 mm 1 mps 756 mmHg 97%
01:00 +19°C° 0 mm 1 mps 755 mmHg 97%
02:00 +19°C° 0 mm 1 mps 755 mmHg 97%
03:00 +19°C° 0 mm 1 mps 755 mmHg 96%
04:00 +19°C° 0 mm 1 mps 755 mmHg 96%
05:00 +19°C° 0 mm 1 mps 755 mmHg 96%
06:00 +19°C° 0 mm 1 mps 755 mmHg 95%
07:00 +21°C° 0 mm 1 mps 755 mmHg 90%
08:00 +22°C° 0 mm 1 mps 755 mmHg 85%
09:00 +24°C° 0 mm 1 mps 755 mmHg 79%
10:00 +24°C° 0.6 mm 1 mps 756 mmHg 79%
11:00 +25°C° 0.6 mm 2 mps 756 mmHg 78%
12:00 +25°C° 0.6 mm 2 mps 756 mmHg 78%
13:00 +25°C° 0.9 mm 2 mps 756 mmHg 79%
14:00 +24°C° 0.9 mm 2 mps 756 mmHg 81%
15:00 +24°C° 0.9 mm 2 mps 756 mmHg 83%
16:00 +23°C° 0.5 mm 2 mps 756 mmHg 87%
17:00 +21°C° 0.5 mm 3 mps 756 mmHg 90%
18:00 +20°C° 0.5 mm 3 mps 756 mmHg 93%
19:00 +20°C° 0 mm 4 mps 756 mmHg 94%
20:00 +19°C° 0 mm 4 mps 757 mmHg 95%
21:00 +19°C° 0 mm 4 mps 757 mmHg 96%
22:00 +19°C° 0 mm 4 mps 757 mmHg 96%
23:00 +19°C° 0 mm 4 mps 757 mmHg 96%

Tomorrow, 14 August, Friday

Time Temperature Precipitation Wind Pressure Humidity
00:00 +18°C° 0 mm 4 mps 757 mmHg 96%
01:00 +18°C° 0 mm 4 mps 757 mmHg 95%
02:00 +18°C° 0 mm 4 mps 757 mmHg 94%
03:00 +17°C° 0 mm 5 mps 757 mmHg 93%
04:00 +17°C° 0 mm 5 mps 757 mmHg 94%
05:00 +17°C° 0 mm 5 mps 757 mmHg 94%
06:00 +17°C° 0 mm 5 mps 758 mmHg 94%
07:00 +19°C° 0 mm 5 mps 758 mmHg 88%
08:00 +20°C° 0 mm 5 mps 758 mmHg 83%
09:00 +21°C° 0 mm 5 mps 758 mmHg 77%
10:00 +22°C° 0 mm 5 mps 758 mmHg 74%
11:00 +23°C° 0 mm 5 mps 758 mmHg 70%
12:00 +25°C° 0 mm 5 mps 759 mmHg 66%
13:00 +25°C° 0 mm 5 mps 758 mmHg 67%
14:00 +25°C° 0 mm 5 mps 758 mmHg 67%
15:00 +25°C° 0 mm 4 mps 758 mmHg 67%
16:00 +23°C° 0 mm 4 mps 758 mmHg 71%
17:00 +22°C° 0 mm 4 mps 758 mmHg 75%
18:00 +21°C° 0 mm 3 mps 758 mmHg 78%
19:00 +20°C° 0 mm 3 mps 759 mmHg 84%
20:00 +18°C° 0 mm 2 mps 759 mmHg 90%
21:00 +16°C° 0 mm 2 mps 759 mmHg 96%
22:00 +16°C° 0 mm 2 mps 759 mmHg 96%
23:00 +16°C° 0 mm 1 mps 759 mmHg 96%

Day after tomorrow, 15 August, Saturday

Time Temperature Precipitation Wind Pressure Humidity
00:00 +16°C° 0 mm 1 mps 759 mmHg 96%
01:00 +15°C° 0 mm 1 mps 759 mmHg 95%
02:00 +15°C° 0 mm 1 mps 758 mmHg 95%
03:00 +15°C° 0 mm 1 mps 758 mmHg 94%
04:00 +15°C° 0 mm 1 mps 758 mmHg 94%
05:00 +15°C° 0 mm 1 mps 758 mmHg 93%
06:00 +15°C° 0 mm 1 mps 758 mmHg 92%
07:00 +19°C° 0 mm 1 mps 758 mmHg 85%
08:00 +21°C° 0 mm 1 mps 758 mmHg 78%
09:00 +21°C° 0 mm 0 mps 759 mmHg 71%
10:00 +24°C° 0 mm 1 mps 758 mmHg 66%
11:00 +25°C° 0 mm 1 mps 758 mmHg 60%
12:00 +26°C° 0 mm 2 mps 758 mmHg 54%
13:00 +26°C° 0 mm 2 mps 758 mmHg 58%
14:00 +25°C° 0 mm 3 mps 757 mmHg 62%
15:00 +25°C° 0 mm 3 mps 757 mmHg 65%
16:00 +22°C° 0.6 mm 3 mps 757 mmHg 72%
17:00 +21°C° 0.6 mm 3 mps 757 mmHg 79%
18:00 +20°C° 0.6 mm 3 mps 757 mmHg 86%
19:00 +19°C° 1.6 mm 2 mps 756 mmHg 89%
20:00 +18°C° 1.6 mm 2 mps 756 mmHg 92%
21:00 +17°C° 1.6 mm 2 mps 756 mmHg 94%
22:00 +17°C° 1.3 mm 2 mps 756 mmHg 95%
23:00 +17°C° 1.3 mm 2 mps 756 mmHg 96%

16 August, Sunday

Time Temperature Precipitation Wind Pressure Humidity
00:00 +16°C° 1.3 mm 2 mps 756 mmHg 96%
01:00 +16°C° 1.3 mm 2 mps 756 mmHg 96%
02:00 +16°C° 1.3 mm 2 mps 755 mmHg 95%
03:00 +16°C° 1.3 mm 2 mps 755 mmHg 95%
04:00 +16°C° 0.3 mm 1 mps 755 mmHg 95%
05:00 +16°C° 0.3 mm 1 mps 754 mmHg 94%
06:00 +16°C° 0.3 mm 1 mps 754 mmHg 94%
07:00 +19°C° 0 mm 1 mps 754 mmHg 89%
08:00 +20°C° 0 mm 1 mps 755 mmHg 84%
09:00 +20°C° 0 mm 2 mps 755 mmHg 79%
10:00 +21°C° 0.1 mm 2 mps 755 mmHg 74%
11:00 +23°C° 0.1 mm 2 mps 755 mmHg 69%
12:00 +24°C° 0.1 mm 2 mps 754 mmHg 65%
13:00 +24°C° 1.2 mm 2 mps 754 mmHg 68%
14:00 +23°C° 1.2 mm 2 mps 754 mmHg 72%
15:00 +23°C° 1.2 mm 2 mps 754 mmHg 76%
16:00 +21°C° 0.5 mm 2 mps 754 mmHg 78%
17:00 +21°C° 0.5 mm 2 mps 754 mmHg 80%
18:00 +21°C° 0.5 mm 2 mps 754 mmHg 82%
19:00 +19°C° 0.2 mm 2 mps 754 mmHg 86%
20:00 +18°C° 0.2 mm 2 mps 754 mmHg 91%
21:00 +16°C° 0.2 mm 2 mps 754 mmHg 95%
22:00 +16°C° 0 mm 2 mps 754 mmHg 96%
23:00 +16°C° 0 mm 2 mps 754 mmHg 96%

17 August, Monday

Time Temperature Precipitation Wind Pressure Humidity
00:00 +15°C° 0 mm 2 mps 754 mmHg 97%
01:00 +15°C° 0 mm 2 mps 754 mmHg 97%
02:00 +15°C° 0 mm 2 mps 754 mmHg 97%
03:00 +15°C° 0 mm 2 mps 754 mmHg 97%
04:00 +15°C° 0 mm 2 mps 754 mmHg 97%
05:00 +15°C° 0 mm 2 mps 754 mmHg 97%
06:00 +15°C° 0 mm 2 mps 754 mmHg 97%
07:00 +17°C° 0.1 mm 3 mps 754 mmHg 93%
08:00 +18°C° 0.1 mm 3 mps 754 mmHg 88%
09:00 +20°C° 0.1 mm 3 mps 755 mmHg 83%
10:00 +20°C° 0.6 mm 4 mps 755 mmHg 81%
11:00 +21°C° 0.6 mm 4 mps 755 mmHg 79%
12:00 +21°C° 0.6 mm 5 mps 755 mmHg 77%
13:00 +21°C° 0.2 mm 5 mps 755 mmHg 76%
14:00 +21°C° 0.2 mm 5 mps 755 mmHg 75%
15:00 +21°C° 0.2 mm 5 mps 756 mmHg 74%
16:00 +20°C° 0.1 mm 5 mps 756 mmHg 77%
17:00 +20°C° 0.1 mm 5 mps 756 mmHg 80%
18:00 +19°C° 0.1 mm 5 mps 756 mmHg 84%
19:00 +17°C° 0.1 mm 5 mps 756 mmHg 88%
20:00 +16°C° 0.1 mm 5 mps 757 mmHg 92%
21:00 +16°C° 0.1 mm 5 mps 757 mmHg 96%
22:00 +16°C° 0 mm 5 mps 757 mmHg 97%
23:00 +17°C° 0 mm 4 mps 757 mmHg 97%

18 August, Tuesday

Time Temperature Precipitation Wind Pressure Humidity
00:00 +17°C° 0 mm 4 mps 757 mmHg 97%
01:00 +17°C° 0 mm 4 mps 757 mmHg 97%
02:00 +17°C° 0 mm 3 mps 757 mmHg 97%
03:00 +17°C° 0 mm 3 mps 757 mmHg 97%
04:00 +17°C° 0 mm 3 mps 757 mmHg 97%
05:00 +17°C° 0 mm 3 mps 758 mmHg 97%
06:00 +17°C° 0 mm 3 mps 758 mmHg 97%
07:00 +18°C° 0 mm 3 mps 758 mmHg 92%
08:00 +19°C° 0 mm 3 mps 758 mmHg 88%
09:00 +20°C° 0 mm 3 mps 759 mmHg 83%
10:00 +21°C° 0 mm 3 mps 759 mmHg 78%
11:00 +22°C° 0 mm 3 mps 759 mmHg 72%
12:00 +24°C° 0 mm 3 mps 759 mmHg 67%
13:00 +24°C° 0 mm 3 mps 759 mmHg 67%
14:00 +24°C° 0 mm 3 mps 759 mmHg 68%
15:00 +24°C° 0 mm 3 mps 759 mmHg 68%
16:00 +22°C° 0 mm 3 mps 759 mmHg 73%
17:00 +21°C° 0 mm 3 mps 759 mmHg 77%
18:00 +20°C° 0 mm 3 mps 759 mmHg 81%
19:00 +18°C° 0 mm 2 mps 760 mmHg 86%
20:00 +17°C° 0 mm 2 mps 760 mmHg 91%
21:00 +16°C° 0 mm 1 mps 760 mmHg 96%
22:00 +15°C° 0 mm 1 mps 760 mmHg 96%
23:00 +15°C° 0 mm 1 mps 760 mmHg 95%
Show more